Showing default

TIANQI 31, 61197

Orbit data source: Space-Track

TIANQI 31, 61197 is a payload satellite owned by Guodian Gaokeji (CN) in LEO that was launched on Fri, 20 Sep 2024 UTC via a KUAIZHOU-1A launch vehicle from the Xichang Space Center, China (XSC). Payload-class satellites include a variety of spacecraft equipped with specific instruments for various scientific and technological missions. These include communications satellites like Starlink; space stations such as the ISS; scientific satellites like the Hubble; Earth observation satellites from companies like Planet Labs, Umbra, and HawkEye 360; GPS; miniature CubeSats for education and research; and military/defense satellites.

Loading next visibility...
Identifier
61197, 2024-170C
Orbit
LEO
Country
Flag of CNCN / PRC
Related business
Manufacturer
Shanghai ASES
Mission
Operational Commercial Communications
Bus & Motor
STARLIGHTB, Unknown motor
Mass
40 kg wet, ~40 kg dry
Launch date (UTC)
2024-09-20 (1 year ago)
Launch vehicle
KUAIZHOU-1A
Launch site
Xichang Space Center, China (XSC)
Object type
Payload
Rocket body
Debris
Shape & HBR
Box, 0.3 m
Radar Cross Section
0.195 m², Medium (>0.1 m² and < 1m²)

Expand to show TLE details & history
Last TLE update: 11 hours ago

TLE from 11 hours ago
0 TIANQI 31
1 61197U 24170C   25303.86804734  .00000081  00000-0  14331-3 0  9995
2 61197  44.8617  79.7198 0007532  75.9300 284.2367 13.98998343 56839
Epoch: 2025-10-30T20:49Z
TLE epoch observation values (Epoch: 2025-10-30T20:49:59.290Z)
Latitude
-0.00005°
Longitude
87.80205°
Altitude
895.906 km
Speed
7.406 km/s
True Right ascension
05h 18m 52s
True Declination
0° 00' 00"
Sunlit
Object was in full shadow at epoch
Visualization orbit readout
Latitude
Unknown
Longitude
Unknown
Altitude
Unknown
Speed
Unknown
Apparent Right ascension
Unknown
Apparent Declination
Unknown
Sunlit
N/A
Visualization observer readout
Local Sidereal Time
03:02:44
Azimuth
Unknown
Elevation
Unknown
Doppler factor
Unknown
Orbital elements
Apogee altitude
904.287 km
Perigee altitude
893.325 km
Semi-major axis
7,276.943 km
Eccentricity
0.00075
Inclination
44.8617°
RAAN
79.7198°
Arg. of periapsis
75.93°
True anomaly
284.15302°
Mean anomaly
284.2367°
Eccentric anomaly
284.19486°
Mean motion
3.49639 °/min
Orbital period
102.96 mins
BSTAR
0.00014331
Loading maneuver chart data...
Computing Atmospheric mass density...
Loading historical data...
Loading historical data...
Loading historical data...
Loading historical data...
Loading historical data...
Loading historical data...
Loading historical data...
Other satellites on launch #170 in the year 2024 (2024-09-20 UTC)

Documentation

Showing up to 5 results
|